Theta_e
288 289 289 287 285 285 284 288 285 288 286 291 294 295 293 292 292 291 291 291 292 295 297 299 299 300 300 300 299 299 297 297 297 298 299 299 300 301 301 301 302 304 304 305
284 284 286 284 287 285 285 287 287 287 286 296 296 293 291 292 292 291 291 290 291 293 293 294 293 297 297 297 298 298 297 297 297 297 297 298 299 299 300 300 302 303 304 304
281 281 283 280 284 285 286 289 289 285 291 292 290 291 293 292 292 292 293 292 291 292 292 293 293 294 295 297 297 296 297 296 296 296 296 297 298 298 298 299 301 303 304 304
283 281 275 287 294 291 288 289 291 291 293 295 294 294 295 296 294 294 294 293 293 293 293 292 292 293 294 294 294 295 295 295 295 295 295 296 296 297 298 299 300 302 303 304
281 280 284 285 290 289 287 288 292 291 293 294 294 294 294 296 296 296 295 295 294 293 292 291 291 292 292 292 293 293 294 294 294 295 295 295 295 296 298 299 300 301 302 303
282 279 277 288 291 294 293 286 296 293 294 293 292 288 293 293 295 295 295 293 291 290 290 290 291 291 291 291 291 292 292 293 294 295 295 294 295 295 296 299 298 295 298 299
282 281 284 291 291 295 284 288 298 299 296 295 291 295 297 294 294 294 292 290 289 290 290 290 290 290 289 289 289 289 290 291 292 293 293 295 295 293 294 295 293 293 291 292
282 280 278 290 291 289 295 295 293 297 298 297 295 297 294 293 292 290 288 288 288 288 287 288 288 289 286 286 286 287 288 287 287 289 290 292 292 291 290 292 291 288 288 288
283 284 292 292 295 298 295 295 293 294 297 298 295 293 293 291 290 289 287 287 287 286 284 285 286 287 285 284 286 286 287 286 286 286 287 288 289 288 289 289 289 288 287 288
282 288 289 291 292 295 292 293 292 292 294 296 293 293 291 290 288 288 286 285 284 284 283 282 284 285 285 285 286 286 285 286 286 286 287 287 288 288 290 289 288 287 286 287
283 286 288 290 292 293 291 291 291 292 294 294 294 292 291 289 288 287 285 284 285 284 282 281 282 283 284 286 287 286 286 286 286 286 286 286 286 288 288 288 288 287 287 287
282 286 286 288 289 291 291 291 291 291 291 293 293 291 290 289 288 286 284 282 282 281 280 279 280 280 280 283 285 285 284 286 286 287 286 286 286 287 289 289 289 290 290 289
285 289 287 288 289 290 290 289 289 291 293 291 291 291 290 287 286 285 283 281 280 279 277 276 276 275 275 279 283 283 283 283 284 285 286 286 287 287 286 288 289 290 290 290
289 288 286 288 288 287 287 286 285 286 288 289 289 288 286 283 281 281 281 279 277 276 275 274 273 271 272 277 279 281 281 281 283 283 284 284 284 284 286 286 286 286 288 289
288 288 288 287 283 281 283 285 284 284 284 283 284 283 281 281 280 277 275 274 274 272 271 272 270 268 270 273 276 278 280 281 282 283 283 283 283 283 284 285 284 284 287 288
285 284 283 285 284 281 282 282 281 280 281 279 279 280 280 277 273 272 272 272 274 272 270 270 269 268 269 272 273 275 275 272 277 281 281 282 283 283 282 282 282 283 284 285
280 278 280 282 281 281 282 282 282 281 279 279 277 273 273 272 271 270 269 271 270 270 270 269 267 267 269 271 275 276 277 277 275 281 281 281 282 281 281 282 282 281 282 284
276 278 279 282 282 280 279 280 280 279 278 275 274 273 272 273 271 268 267 267 266 266 267 267 267 267 267 269 271 273 274 274 275 275 276 278 280 281 281 281 281 281 281 283
273 276 278 282 282 282 280 279 279 276 275 275 275 274 274 271 270 268 268 268 267 266 264 268 269 268 268 267 270 272 272 272 271 271 272 271 274 274 274 275 276 277 278 280
272 275 277 277 280 280 279 276 275 275 275 277 274 272 270 269 269 269 271 268 268 268 265 265 266 266 265 265 267 269 270 270 270 269 269 269 270 270 270 269 270 272 273 274
271 273 273 273 273 274 274 275 276 274 273 274 273 271 269 269 269 267 267 266 262 263 264 265 266 266 267 266 267 267 268 268 268 268 268 268 268 268 269 269 269 270 271 271
269 270 271 272 272 272 273 274 274 274 273 271 269 269 268 267 265 264 265 267 263 263 265 265 265 263 266 265 266 266 266 266 266 267 267 267 267 268 268 268 268 268 269 269
269 269 269 270 270 269 270 271 271 270 270 270 270 270 269 268 269 268 264 262 263 263 265 264 263 264 264 265 265 265 264 265 265 266 266 266 266 266 266 266 267 267 267 267
266 267 267 268 268 268 265 265 265 264 264 265 265 266 266 263 261 263 262 262 263 263 263 263 266 264 261 263 263 263 263 263 263 264 264 261 264 264 264 264 264 266 265 265
266 267 269 267 264 263 264 263 263 262 261 260 259 260 261 262 264 261 262 262 263 262 261 262 263 260 260 260 261 261 261 262 262 261 262 262 262 262 263 263 263 264 264 264
259 259 262 264 264 264 265 265 262 261 261 258 258 259 260 260 259 260 259 259 260 259 259 259 259 259 259 259 259 259 260 260 261 261 260 261 261 261 262 262 262 263 263 263
259 261 261 260 259 261 263 264 263 261 261 260 257 258 259 259 259 259 259 259 258 258 258 257 258 257 257 258 257 258 258 258 258 259 259 260 260 260 260 261 261 261 262 262
Wind_Speed
23 5 17 18 20 20 19 29 16 29 27 19 9 8 6 8 7 8 6 8 11 11 11 12 13 12 11 11 11 11 11 11 11 10 9 8 8 8 7 6 5 5 4 4
17 8 7 10 22 24 27 23 20 11 18 16 13 5 9 13 12 12 13 10 8 9 8 9 8 11 10 9 11 11 12 11 10 9 9 8 8 7 7 6 5 6 6 5
20 10 5 6 21 28 23 21 31 17 39 7 9 12 14 17 18 18 14 14 13 12 10 8 10 9 11 10 9 10 10 8 9 9 9 9 7 7 7 7 6 6 6 6
9 11 18 13 17 18 24 20 23 25 28 20 15 12 12 12 18 18 17 16 14 12 10 8 7 7 8 7 8 9 9 9 9 10 9 8 8 8 7 7 7 6 6 6
8 15 3 8 16 21 22 29 20 29 32 23 4 3 13 15 13 14 14 12 11 11 11 9 9 8 8 8 7 8 9 10 10 10 10 9 10 9 8 7 6 6 4 4
8 14 23 15 14 11 12 16 23 31 26 17 13 13 21 14 14 12 12 11 12 11 10 10 8 9 9 8 8 7 7 8 8 8 9 9 7 7 4 4 3 2 2 1
21 11 6 7 17 19 16 15 18 25 23 20 21 27 7 18 16 16 15 14 12 11 10 10 9 9 10 8 8 5 6 6 6 6 6 7 7 4 5 5 4 4 3 3
17 15 12 8 17 24 22 7 1 6 20 25 31 9 13 18 18 20 20 17 12 11 11 9 8 10 11 9 5 6 7 7 6 5 4 4 6 4 4 4 4 3 2 1
5 5 4 18 20 18 1 6 5 5 9 17 13 10 17 17 19 17 19 16 12 12 13 8 6 7 11 7 7 7 8 7 6 5 4 4 5 4 2 3 2 2 1 1
4 8 9 15 7 12 5 4 3 4 7 13 17 17 18 19 19 19 17 16 13 13 13 11 8 7 9 7 7 9 9 7 5 5 5 4 3 2 2 2 2 1 2 1
7 8 13 14 18 7 5 3 3 4 8 15 18 18 21 19 19 19 18 15 13 14 13 12 8 8 5 6 8 9 9 7 6 4 4 4 3 2 2 1 1 1 1 1
3 2 2 13 13 10 9 9 8 7 9 12 19 20 21 20 19 19 19 16 13 14 14 11 10 8 5 3 5 8 9 7 6 5 5 4 4 4 4 3 3 1 2 1
9 5 4 17 17 11 12 4 6 7 10 15 14 20 21 21 18 19 17 21 17 17 12 11 10 8 4 3 5 6 8 7 6 5 4 4 4 3 3 1 3 5 4 3
7 6 9 9 7 2 2 4 6 8 8 12 15 14 18 17 18 17 16 18 15 15 13 11 10 9 4 5 7 8 8 6 5 5 5 4 4 3 2 2 2 2 4 4
13 14 7 3 4 1 4 9 12 11 14 15 14 16 18 22 19 15 14 17 14 14 11 10 10 8 4 5 7 8 5 4 4 5 5 5 5 4 3 3 3 1 2 2
6 5 5 5 5 6 7 7 13 13 14 15 16 18 17 16 17 15 13 14 18 13 10 10 10 5 5 5 7 6 6 5 3 4 4 4 4 4 4 3 2 1 1 3
6 5 7 7 10 10 13 8 12 15 16 18 18 18 21 20 17 15 10 11 12 12 9 9 9 5 5 5 6 5 4 5 5 5 4 3 3 3 3 2 1 0 1 2
5 1 4 1 10 9 7 7 10 16 17 19 20 21 21 20 19 14 13 12 13 12 9 8 7 6 6 6 6 5 4 5 5 5 3 3 2 3 2 2 0 0 1 2
6 8 8 10 14 13 13 14 15 13 17 19 22 21 18 17 17 16 14 12 11 12 5 6 9 9 8 7 6 3 5 7 6 4 3 2 3 3 3 3 3 3 4 4
4 5 7 10 11 14 16 12 17 18 16 19 20 21 19 16 16 15 11 11 7 7 9 8 8 8 7 7 5 4 4 6 6 4 3 3 3 3 3 3 3 3 4 4
5 6 13 14 12 12 13 15 17 19 17 17 21 22 20 17 14 16 14 10 6 7 9 9 7 6 4 4 4 3 3 4 4 4 3 3 2 2 2 2 2 2 3 3
6 7 13 15 15 15 13 13 17 15 16 18 18 18 19 16 12 12 9 8 8 9 6 7 6 5 5 4 3 3 4 4 3 3 2 2 1 1 1 2 2 3 3 3
8 8 11 14 17 18 16 15 15 15 16 16 18 18 14 11 7 9 11 5 8 8 7 5 6 8 6 3 3 3 4 4 3 2 2 2 2 3 3 3 3 3 3 3
9 10 12 14 16 19 20 15 16 17 15 15 13 14 13 11 9 8 10 12 13 10 7 6 7 8 4 2 3 3 3 2 1 1 1 1 1 2 3 4 5 4 4 4
9 10 11 14 17 13 17 17 18 16 17 13 12 10 10 6 7 8 7 8 12 9 7 7 7 6 3 2 2 2 2 1 2 2 2 3 3 3 3 3 4 5 6 6
11 8 9 11 10 12 10 11 14 9 11 11 8 8 9 8 8 9 8 8 7 8 6 3 3 3 2 2 2 2 2 2 2 1 2 3 3 4 4 5 5 5 5 5
12 11 10 10 10 10 10 11 13 10 8 10 11 7 8 8 8 8 9 7 6 5 4 3 3 2 2 2 1 1 1 1 2 2 3 3 3 4 4 5 6 6 6 6
Wind_Direction
230 239 188 198 193 191 199 216 202 233 236 226 244 230 200 180 174 181 188 184 187 186 184 185 184 184 186 188 184 182 186 191 195 193 191 189 188 190 195 187 189 180 178 196
233 227 213 203 195 190 201 215 229 235 263 241 225 149 181 190 185 197 201 200 194 187 171 179 174 183 183 187 186 184 191 198 193 184 183 189 189 187 195 190 186 182 182 193
219 170 151 236 199 194 206 212 216 209 237 152 201 219 197 191 195 198 193 191 191 189 180 176 181 178 185 182 175 188 191 188 187 181 182 184 184 183 191 194 192 193 190 189
206 153 219 218 194 199 203 209 217 234 245 225 208 213 219 220 200 189 183 184 183 176 170 164 161 161 154 160 174 184 188 186 183 180 177 171 172 184 187 193 202 203 197 197
210 199 153 189 187 185 187 225 208 225 241 228 151 134 246 204 195 192 182 170 170 164 153 153 166 158 156 164 169 175 183 184 180 181 173 175 179 185 186 186 190 202 213 198
187 216 218 200 181 194 176 254 210 215 228 209 161 220 233 157 166 166 157 152 150 149 140 148 153 149 148 149 162 170 172 169 167 169 172 178 176 168 162 178 164 154 192 249
208 219 230 193 152 150 174 229 247 212 210 191 193 221 152 162 165 154 146 139 139 145 147 140 138 133 127 133 130 126 123 128 133 151 157 165 153 154 152 161 164 185 200 226
223 233 230 150 158 173 205 197 112 209 192 199 212 204 151 158 153 142 137 135 140 135 127 124 122 129 125 123 126 120 114 110 103 100 108 129 132 129 141 159 168 167 179 248
282 246 311 182 180 204 173 170 214 188 191 202 182 161 150 149 143 140 133 132 134 130 112 104 101 123 130 127 133 124 111 100 100 95 90 104 118 127 141 143 152 172 175 200
124 249 277 216 212 196 197 190 204 199 176 177 165 151 143 141 139 134 134 134 129 129 121 104 97 103 103 130 129 114 110 104 99 100 98 87 96 118 145 157 159 153 161 195
264 275 299 269 239 203 184 154 193 186 183 161 146 151 146 142 142 138 134 134 137 130 125 107 109 95 95 116 126 118 112 113 108 102 98 93 70 88 112 85 116 137 148 128
311 2 315 298 341 272 227 202 175 167 133 153 149 149 148 145 142 142 137 137 127 115 117 125 118 110 100 112 127 127 120 121 119 120 120 118 123 109 84 73 48 172 236 168
220 155 282 274 291 278 226 201 136 139 155 145 148 144 148 140 141 140 144 128 135 131 129 126 125 111 90 104 117 109 114 116 112 112 110 114 109 110 111 72 99 82 60 47
195 136 266 283 288 211 177 101 90 94 110 126 131 131 131 128 127 134 140 121 119 123 121 124 118 101 67 92 101 93 97 101 117 118 118 111 104 101 64 60 56 27 16 18
211 207 218 187 92 163 103 131 113 127 127 122 127 128 135 134 131 123 121 113 117 116 115 119 111 99 73 78 93 100 109 113 119 117 109 110 116 108 100 90 75 25 359 7
208 193 168 202 198 147 137 152 136 136 126 121 123 131 124 111 113 111 111 123 129 130 125 116 104 106 102 107 108 105 99 98 101 104 104 100 105 110 107 91 85 47 31 2
145 206 213 186 179 171 186 168 160 144 134 132 126 120 117 116 112 110 94 93 100 103 104 106 111 112 103 96 109 109 112 106 96 103 94 100 104 98 90 95 94 65 5 353
281 281 249 354 163 145 144 142 141 138 140 134 130 127 126 131 128 121 115 111 100 86 83 91 107 106 89 84 84 91 99 88 76 75 67 62 57 69 75 107 122 327 333 338
255 247 234 167 159 160 153 144 140 124 137 137 134 133 123 121 124 123 124 116 108 109 126 131 119 96 88 79 79 90 99 100 91 80 74 61 63 46 45 26 11 359 4 3
239 224 122 98 124 144 139 134 131 129 138 138 127 122 119 122 126 123 116 95 78 113 141 122 110 98 84 66 67 80 91 99 104 97 70 68 52 49 39 30 2 353 346 345
157 138 107 105 104 107 121 133 133 139 140 145 136 133 130 129 126 125 118 115 135 128 119 112 91 91 93 94 77 83 91 91 90 96 92 83 82 49 33 10 0 345 340 339
113 111 116 120 118 111 112 120 125 135 133 125 118 122 121 115 108 87 54 116 137 130 118 104 113 106 99 96 102 115 96 89 81 80 90 76 45 24 5 355 343 329 323 319
99 116 115 122 121 114 104 105 108 114 115 122 124 124 117 109 111 122 112 117 117 112 106 108 112 108 98 95 96 79 72 70 69 72 59 44 358 332 325 324 320 312 309 309
86 95 107 116 117 109 104 98 95 90 87 84 88 101 119 110 72 58 90 116 115 112 103 107 103 88 88 104 90 90 92 86 87 43 11 13 353 327 321 324 316 309 300 298
94 102 108 112 108 100 104 106 96 94 92 76 69 56 56 41 98 131 115 110 107 105 99 83 91 108 110 105 111 106 98 74 36 6 1 338 323 309 299 294 288 300 306 300
68 70 78 82 101 104 103 107 99 99 105 96 70 74 78 81 94 95 98 100 99 95 92 118 118 110 112 104 86 67 45 25 359 351 315 295 294 294 296 300 296 293 289 287
58 58 77 72 52 66 80 93 103 104 100 104 101 79 100 103 99 98 94 94 94 111 125 118 119 112 91 73 51 35 8 317 278 288 278 278 280 280 284 288 289 288 286 283